Change the Weather History Date:

Saturday, October 26, 2013

  Actual Average Record
Temperature  
Mean Temperature 48 °F -  
Max Temperature 63 °F 70 °F 84 °F (2010)
Min Temperature 33 °F 48 °F 33 °F (2013)
Degree Days  
Heating Degree Days 18    
Moisture  
Dew Point 36 °F    
Average Humidity 70    
Maximum Humidity 93    
Minimum Humidity 39    
Precipitation  
Precipitation 0.00 in - - ()
Sea Level Pressure  
Sea Level Pressure 30.24 in    
Wind  
Wind Speed 3 mph (West)    
Max Wind Speed 9 mph    
Max Gust Speed -    
Visibility 10 miles    
Events      
Averages and records for this station are not official NWS values.
T = Trace of Precipitation, MM = Missing Value Source: NWS Daily Summary

Daily Weather History Graph

Daily Weather History Graph

Search for Another Location

Airport or City:

Trip Planner

Search our weather history database for the weather conditions in past years. The results will help you decide how hot, cold, wet, or windy it might be!

Date:

Astronomy

Oct. 26, 2013 Rise Set
Actual Time 7:25 AM EDT 6:21 PM EDT
Civil Twilight 6:59 AM EDT 6:47 PM EDT
Nautical Twilight 6:29 AM EDT 7:17 PM EDT
Astronomical Twilight 6:00 AM EDT 7:46 PM EDT
Moon No Moon Rise 1:37 PM EDT (10/26)
Length of Visible Light 11h 48m
Length of Day
10h 56m
Waning Gibbous, 53% of the Moon is Illuminated
Oct 26
Waning Gibbous
Oct 26
Last Quarter
Nov 3
New
Nov 10
First Quarter
Nov 17
Full

Hourly Weather History & Observations

Time (EDT) Temp. Windchill Dew Point Humidity Pressure Visibility Wind Dir Wind Speed Gust Speed Precip Events Conditions
12:56 AM 36.0 °F - 34.0 °F 93% 30.36 in 10.0 mi Calm Calm - N/A   Clear
1:56 AM 35.1 °F - 33.1 °F 92% 30.34 in 9.0 mi Calm Calm - N/A   Clear
2:56 AM 35.1 °F 32.2 °F 33.1 °F 92% 30.32 in 9.0 mi West 3.5 mph - N/A   Clear
3:56 AM 34.0 °F - 32.0 °F 92% 30.32 in 9.0 mi Calm Calm - N/A   Clear
4:56 AM 33.1 °F - 30.9 °F 92% 30.30 in 8.0 mi Calm Calm - N/A   Clear
5:56 AM 33.1 °F 30.0 °F 30.0 °F 89% 30.31 in 10.0 mi WNW 3.5 mph - N/A   Clear
6:56 AM 33.1 °F 30.0 °F 30.0 °F 89% 30.32 in 10.0 mi WNW 3.5 mph - N/A   Clear
7:04 AM - - - N/A% - - North - - N/A   Unknown
7:56 AM 36.0 °F 32.1 °F 30.9 °F 82% 30.32 in 10.0 mi NNW 4.6 mph - N/A   Clear
8:56 AM 41.0 °F 37.1 °F 33.1 °F 73% 30.34 in 10.0 mi NNW 5.8 mph - N/A   Clear
9:56 AM 46.0 °F 43.1 °F 34.0 °F 63% 30.34 in 10.0 mi NNW 5.8 mph - N/A   Clear
10:56 AM 53.1 °F - 33.1 °F 47% 30.31 in 10.0 mi NNW 5.8 mph - N/A   Clear
11:56 AM 55.9 °F - 33.1 °F 42% 30.30 in 10.0 mi WNW 6.9 mph - N/A   Clear
12:56 PM 57.9 °F - 33.1 °F 39% 30.26 in 10.0 mi West 5.8 mph - N/A   Clear
1:56 PM 61.0 °F - 36.0 °F 39% 30.23 in 10.0 mi WSW 9.2 mph - N/A   Clear
2:56 PM 62.1 °F - 39.0 °F 43% 30.19 in 10.0 mi West 9.2 mph - N/A   Clear
3:56 PM 62.1 °F - 37.9 °F 41% 30.17 in 10.0 mi West 6.9 mph - N/A   Clear
4:56 PM 62.1 °F - 37.9 °F 41% 30.15 in 10.0 mi WSW 8.1 mph - N/A   Clear
5:56 PM 59.0 °F - 37.9 °F 46% 30.14 in 10.0 mi WSW 4.6 mph - N/A   Clear
6:56 PM 52.0 °F - 41.0 °F 66% 30.13 in 10.0 mi Calm Calm - N/A   Clear
7:56 PM 48.9 °F - 42.1 °F 77% 30.14 in 10.0 mi Calm Calm - N/A   Clear
8:56 PM 44.1 °F - 42.1 °F 93% 30.14 in 10.0 mi Calm Calm - N/A   Clear
9:56 PM 46.0 °F 43.9 °F 39.9 °F 79% 30.14 in 10.0 mi WSW 4.6 mph - N/A   Clear
10:56 PM 44.1 °F 42.5 °F 39.0 °F 82% 30.13 in 10.0 mi WSW 3.5 mph - N/A   Clear
11:56 PM 45.0 °F 41.8 °F 39.0 °F 80% 30.13 in 10.0 mi WSW 5.8 mph - N/A   Clear